sat.trackr.live / text

‹ back to catalog

BEIDOU-3 M4 (C22)

NORAD 43207 · 2018-018A

PAYLOAD ACTIVE UNKNOWN

§ Identity

Operator
Country
PRC
Launch date
2018-02-12
Launch site
XICLF
Launch vehicle
Mass (kg)
RCS (m²)

Purposes: nav

External: N2YO · Heavens-Above · Gunter

§ Orbital elements

Epoch: 2026-09-19T04:02:40.623936Z

Period
773.23 min
Inclination
56.7373°
Eccentricity
0.0005723
Mean motion
1.86231163 rev/d
Perigee alt
21,512.1 km
Apogee alt
21,544.0 km
Semi-major
27,906.2 km
B*
0.0000e+0
RAAN
60.0544°
Arg perigee
43.5560°
Mean anomaly
316.5088°
Rev number
5,849

§ Raw data

BEIDOU-3 M4 (C22)1 43207U 18018A   26262.16852574 -.00000014  00000+0  00000+0 0  99942 43207  56.7373  60.0544 0005723  43.5560 316.5088  1.86231163 58496

JSON: /api/v1/satellites/43207 · /tle

For live sub-satellite position, see the globe view (requires WebGL).

§ Visibility from observer

Set your observer location to see the next 7 days of passes ≥ 10°. The values pass through the URL so the page stays shareable.

No JS? Fill the form by hand. The geolocation button needs JavaScript.